Regional Weather Roundup
Issued by NWS San Angelo, TX

Home | Current Version | Previous Version | Text Only | Print | Product List | Glossary On
Versions: 1 2 3 4 5 6 7 8 9 10 11 12 13 14 15 16 17 18 19 20 21 22 23 24 25 26 27 28 29 30 31 32 33 34 35 36 37 38 39 40 41 42 43 44 45 46 47 48 49 50
000
ASUS44 KSJT 271410
RWRSJT
WEST CENTRAL TEXAS REGIONAL WEATHER ROUNDUP
NATIONAL WEATHER SERVICE SAN ANGELO TX
900 AM CDT WED MAY 27 2015

NOTE: "FAIR" INDICATES FEW OR NO CLOUDS BELOW 12,000 FEET WITH NO
SIGNIFICANT WEATHER AND/OR OBSTRUCTIONS TO VISIBILITY.

TXZ049-054-064>066-071>073-076>078-098-099-113-114-127-128-139-140-
154-155-168>170-271500
...LOCATIONS ACROSS WEST CENTRAL TEXAS...

CITY           SKY/WX    TMP DP  RH WIND       PRES   REMARKS
SAN ANGELO     SUNNY     77  70  79 S10       30.05R
ABILENE        CLOUDY    73  68  84 S10       30.05R
DYESS AFB      CLOUDY    73  65  76 S15G24    30.03R
JUNCTION       PTSUNNY   76  70  82 SE9       30.06R
SWEETWATER     CLOUDY    72  71  96 S14       30.09S
BROWNWOOD      SUNNY     72  68  88 S6        30.07R
COLEMAN        CLOUDY    73  69  86 S9        30.06S
SONORA         PTSUNNY   75  70  83 SE9       30.11S
OZONA          PTSUNNY   77  68  73 SE16      30.09S
BRADY          NOT AVBL
$$

TEXAS PANHANDLE/OKLAHOMA PANHANDLE

CITY           SKY/WX    TMP DP  RH WIND       PRES   REMARKS
AMARILLO       SUNNY     67  59  75 S13       30.10R
BORGER         SUNNY     67  58  72 CALM      30.08S
CANADIAN       MOSUNNY   66  62  87 E5        30.07R
DALHART        SUNNY     66  56  70 SE6       30.11F
DUMAS          SUNNY     66  57  74 S5        30.10S
GUYMON         NOT AVBL
HEREFORD       SUNNY     67  60  78 MISG      30.12S
PAMPA          SUNNY     68  58  70 SW5       30.09S
PERRYTON       MOSUNNY   69  60  73 CALM      30.07F
$$

SOUTHERN PANHANDLE/SOUTH PLAINS/ROLLING PLAINS

CITY           SKY/WX    TMP DP  RH WIND       PRES   REMARKS
LUBBOCK        CLOUDY    70  66  87 S9        30.10R FOG
SNYDER         CLOUDY    71  69  95 S10       30.08R FOG
CHILDRESS      PTSUNNY   68  62  81 CALM      30.06R
SEMINOLE       CLOUDY    69  68  94 SE12      30.11S FOG
$$

PERMIAN BASIN

CITY           SKY/WX    TMP DP  RH WIND       PRES   REMARKS
MIDLAND        CLOUDY    73  68  84 S17G26    30.07R HAZE
ODESSA         CLOUDY    73  66  78 S12G21    30.08R HAZE
WINK           MOSUNNY   73  67  81 SE15G25   30.04R
$$

FAR WEST/SOUTHWEST MOUNTAINS/TRANS PECOS

CITY           SKY/WX    TMP DP  RH WIND       PRES   REMARKS
ALPINE         SUNNY     71  56  58 CALM      30.17S
DRYDEN           N/A     75  68  78 CALM      30.03R
EL PASO        MOSUNNY   69  29  22 CALM      30.07R
FORT STOCKTON  SUNNY     72  63  73 SE16G22   30.06R
GUADALUPE PASS SUNNY     70  44  39 S3        30.19R
MARFA          SUNNY     70  57  64 CALM      30.17R
PECOS          SUNNY     66  58  75 CALM      30.04R
$$

DALLAS/FORT WORTH METROPLEX

CITY           SKY/WX    TMP DP  RH WIND       PRES   REMARKS
DFW AIRPORT    MOSUNNY   69  60  73 E5        30.08R
FTW MEACHAM    SUNNY     72  61  68 S8        30.06R
DAL-EXECUTIVE  SUNNY     64  59  83 CALM      30.08R
GRAND PRAIRIE  NOT AVBL
ADDISON        SUNNY     73  63  68 SE5       30.11R
MESQUITE       NOT AVBL
LANCASTER      SUNNY     69  61  76 S5        30.09R
$$

NORTH CENTRAL TEXAS

CITY           SKY/WX    TMP DP  RH WIND       PRES   REMARKS
SHRMAN/DENISON SUNNY     73  65  78 CALM      30.10R
GAINESVILLE    SUNNY     69  60  71 CALM      30.11R
BRIDGEPORT     SUNNY     69  64  81 CALM      30.10R
DENTON         SUNNY     71  61  70 CALM      30.09R
WAXAHACHIE     SUNNY     69  64  83 S9        30.09R
GRANBURY       SUNNY     73  62  68 SE8       30.07S
$$

WESTERN NORTH TEXAS

CITY           SKY/WX    TMP DP  RH WIND       PRES   REMARKS
WICHITA FALLS  MOSUNNY   69  62  78 VRB3      30.06R
VERNON         CLOUDY    68  60  74 SE7       30.07R
BRECKENRIDGE   SUNNY     74  65  73 S10       30.05R
COMANCHE       SUNNY     72  72 100 SE5       30.07R
$$

CENTRAL AND SOUTH CENTRAL TEXAS

CITY           SKY/WX    TMP DP  RH WIND       PRES   REMARKS
AUSTIN/BERGSTM CLOUDY    69  67  93 E8        30.08R THUNDER
WACO           SUNNY     69  64  84 S12       30.09R
HILLSBORO      SUNNY    N/A N/A N/A S9        30.09R
TEMPLE         MOSUNNY   68  61  77 SE10      30.09R
KILLEEN-GRAY   CLOUDY    68  65  90 SE8       30.08R
FORT HOOD      PTSUNNY   68  65  89 SE10      30.07R
GEORGETOWN     NOT AVBL
LAGO VISTA     CLOUDY    68  66  94 E6        30.09R
SAN MARCOS     CLOUDY    70  66  88 E7        30.06R FOG
NEW BRAUNFELS  CLOUDY    73  70  90 NE9       30.05R
RANDOLPH AFB   CLOUDY    77  76  96 SE10      30.04R FOG
SAN ANTONIO    CLOUDY    79  76  90 SE9       30.04R FOG
STINSON        CLOUDY    79  75  87 SE9       30.02R FOG
PLEASANTON     NOT AVBL
LA GRANGE      MOSUNNY   72  71  95 SE7       30.07R
GIDDINGS       CLOUDY    69  67  93 SE9       30.12R
$$

EAST TEXAS

CITY           SKY/WX    TMP DP  RH WIND       PRES   REMARKS
PARIS          PTSUNNY   72  59  64 CALM      30.08S
CLARKSVILLE    NOT AVBL
TYLER          CLOUDY    68  61  78 E3        30.08R
LONGVIEW       CLOUDY    68  64  87 E3        30.07R
PALESTINE      PTSUNNY   68  64  89 SE5       30.09S
NACOGDOCHES    CLOUDY    66  64  94 S8        30.06S
$$

TEXAS HILL COUNTRY AND EDWARDS PLATEAU

CITY           SKY/WX    TMP DP  RH WIND       PRES   REMARKS
LLANO          CLOUDY    72  70  94 E7        30.10R
HORSESHOE BAY  FAIR      73  69  90 E8        30.07R
KERRVILLE      CLOUDY    76  73  90 S7        30.07R FOG
FREDERICKSBRG  PTSUNNY   76  71  84 SE7       30.07S
ROCKSPRINGS    PTSUNNY  N/A N/A N/A SE7       30.09S FOG
HONDO          CLOUDY    78  75  90 SE13      30.04R FOG
UVALDE         PTSUNNY   77  74  90 SE7       30.03R FOG
DEL RIO        CLOUDY    78  73  84 SE10      29.99R
$$

SOUTHEAST TEXAS

CITY           SKY/WX    TMP DP  RH WIND       PRES   REMARKS
COLLEGE STN    PTSUNNY   70  67  90 SE8       30.09R
CALDWELL       MOSUNNY   70  70 100 CALM      30.12R
CROCKETT       NOT AVBL
BRENHAM        PTSUNNY   71  70  98 S3        30.10R
HUNTSVILLE     CLOUDY    66  64  93 S8        30.11R
CONROE         CLOUDY    65  63  93 S6        30.12R
HOUSTON BUSH   LGT RAIN  67  65  93 W6        30.10F
HOUSTON HOBBY  LGT RAIN  68  66  93 E10       30.13R
PERLAND        CLOUDY    69  66  90 NE12      30.15R
WHARTON        CLOUDY    72  67  84 NE10      30.12R
$$

THE UPPER TEXAS COAST

CITY           SKY/WX    TMP DP  RH WIND       PRES   REMARKS
ORANGE         TSTM      67  65  93 CALM      30.18R
PORT ARTHUR    RAIN      68  65  90 E5        30.16R
GALVESTON      CLOUDY    70  68  93 NE14      30.15R
ANGLETON       LGT RAIN  67  67 100 NE9       30.13R
BAY CITY       CLOUDY    74  72  93 NE17G25   30.10R
$$

TEXAS COASTAL BEND, RIO GRANDE PLAINS DEEP SOUTH TEXAS

CITY           SKY/WX    TMP DP  RH WIND       PRES   REMARKS
VICTORIA       CLOUDY    79  78  97 E9        30.06R FOG
BEEVILLE       FAIR      81  80  99 SE10      30.02R
ROCKPORT       MOSUNNY   83  74  74 SE7       30.03R
PORT ARANSAS   SUNNY     82  75  81 S10G16    30.03R
PORT LAVACA    PTSUNNY   81  76  85 E10       30.07R
CORPUS CHRISTI PTSUNNY   82  76  81 SE13      30.01R
KINGSVILLE NAS PTSUNNY   83  78  85 SE13      30.01R
COTULLA        PTSUNNY   81  75  82 SE13      29.99R HAZE
LAREDO         SUNNY     82  74  77 SE15G22   29.99R
BROWNSVILLE    CLOUDY    83  76  79 SE15      30.00R
PORT ISABEL    MOSUNNY   82  75  79 SE16      29.99S
HEBBRONVILLE     N/A     78  73  84 SE9G20    30.01R HAZE
MCALLEN        CLOUDY    83  76  79 SE15      29.99R
WESLACO        CLOUDY    80  75  82 SE8       29.99R
FALFURRIAS     MOSUNNY   81  75  81 SE15      29.99S
EDINBURG       CLOUDY    82  75  80 SE9G18    30.00R
$$



USA.gov is the U.S. government's official web portal to all federal, state and local government web resources and services.